Estación de Nogales
Ultimos registro cada 15 minutos 35
| N° | Estación | Fecha / Hora | Temperatura | Humedad | Lluvia | Velocidad | Dirección | Radiación | Presion |
| 35 | Nogales | 05-09-2026 08:30 | 10,3 | 93,1 | 0 | 0 | 350 | 293,1 | 986,7 |
| 34 | Nogales | 05-09-2026 08:15 | 8,6 | 96,5 | 0 | 0 | 350 | 241,9 | 986,6 |
| 33 | Nogales | 05-09-2026 08:00 | 6,1 | 97,3 | 0,2 | 0 | 350 | 59,4 | 986,5 |
| 32 | Nogales | 05-09-2026 07:45 | 3,6 | 97,3 | 0 | 0 | 350 | 19,4 | 986,4 |
| 31 | Nogales | 05-09-2026 07:30 | 3,5 | 97,1 | 0 | 0 | 350 | 13,1 | 986,4 |
| 30 | Nogales | 05-09-2026 07:15 | 3,3 | 97,1 | 0 | 0 | 350 | 8,1 | 986,4 |
| 29 | Nogales | 05-09-2026 07:00 | 3,5 | 97 | 0 | 0 | 350 | 3,1 | 986,4 |
| 28 | Nogales | 05-09-2026 06:45 | 3,1 | 96,8 | 0 | 0 | 350 | 0,6 | 986,3 |
| 27 | Nogales | 05-09-2026 06:30 | 3,2 | 96,7 | 0 | 0 | 350 | 0,6 | 986,3 |
| 26 | Nogales | 05-09-2026 06:15 | 3,9 | 96,8 | 0 | 0 | 350 | 0,6 | 986,3 |
| 25 | Nogales | 05-09-2026 06:00 | 3,6 | 96,7 | 0 | 0 | 350 | 0,6 | 986,3 |
| 24 | Nogales | 05-09-2026 05:45 | 3,9 | 96,8 | 0 | 0 | 350 | 0,6 | 986,4 |
| 23 | Nogales | 05-09-2026 05:30 | 3,7 | 96,5 | 0 | 0 | 350 | 0,6 | 986,3 |
| 22 | Nogales | 05-09-2026 05:15 | 4,4 | 96,2 | 0 | 0 | 350 | 0,6 | 986,2 |
| 21 | Nogales | 05-09-2026 05:00 | 4,7 | 96,5 | 0 | 0 | 350 | 0,6 | 986,2 |
| 20 | Nogales | 05-09-2026 04:45 | 4,5 | 96,5 | 0 | 0 | 350 | 0,6 | 986,3 |
| 19 | Nogales | 05-09-2026 04:30 | 4,5 | 96,1 | 0 | 0 | 350 | 0,6 | 986,3 |
| 18 | Nogales | 05-09-2026 04:15 | 4,9 | 96 | 0 | 0,3 | 341 | 0,6 | 986,4 |
| 17 | Nogales | 05-09-2026 04:00 | 4,4 | 95,8 | 0 | 0 | 279 | 0,6 | 986,4 |
| 16 | Nogales | 05-09-2026 03:45 | 4,5 | 95,7 | 0 | 0 | 279 | 0,6 | 986,6 |
| 15 | Nogales | 05-09-2026 03:30 | 5 | 95,5 | 0 | 0 | 279 | 0,6 | 986,7 |
| 14 | Nogales | 05-09-2026 03:15 | 5 | 95,5 | 0 | 0 | 279 | 0,6 | 986,8 |
| 13 | Nogales | 05-09-2026 03:00 | 4,9 | 95,2 | 0 | 0 | 279 | 0,6 | 987 |
| 12 | Nogales | 05-09-2026 02:45 | 4,8 | 94,9 | 0 | 0 | 279 | 0,6 | 987,2 |
| 11 | Nogales | 05-09-2026 02:30 | 5,1 | 94,9 | 0 | 0 | 279 | 0,6 | 987,3 |
| 10 | Nogales | 05-09-2026 02:15 | 5,3 | 94,8 | 0 | 0 | 279 | 0,6 | 987,3 |
| 9 | Nogales | 05-09-2026 02:00 | 5,7 | 94,9 | 0 | 0 | 279 | 0,6 | 987,5 |
| 8 | Nogales | 05-09-2026 01:45 | 5,7 | 94,7 | 0 | 0 | 279 | 0,6 | 987,4 |
| 7 | Nogales | 05-09-2026 01:30 | 5,7 | 94,3 | 0 | 0 | 279 | 0,6 | 987,6 |
| 6 | Nogales | 05-09-2026 01:15 | 5,8 | 94,1 | 0 | 0 | 279 | 0,6 | 987,6 |
| 5 | Nogales | 05-09-2026 01:00 | 6,3 | 93,7 | 0 | 0 | 279 | 0,6 | 987,7 |
| 4 | Nogales | 05-09-2026 00:45 | 6,5 | 93,7 | 0 | 0 | 279 | 0,6 | 988 |
| 3 | Nogales | 05-09-2026 00:30 | 6,6 | 93,7 | 0 | 0 | 279 | 0,6 | 988,1 |
| 2 | Nogales | 05-09-2026 00:15 | 6,4 | 93,1 | 0 | 0 | 279 | 0,6 | 988,3 |
| 1 | Nogales | 05-09-2026 00:00 | 6,6 | 92,9 | 0 | 0 | 279 | 0,6 | 988,4 |